Theta_e
286 286 286 286 286 286 286 287 286 286 286 286 285 285 283 282 282 283 284 287 288 287 287 287 288 288 288 286 286 285 285 286 285 286 287 287 287 286 286 286 287 287 287 287 287 288 289 290 291 292 293 294 295 296 296 297 298 299 300 300 300 300 297 295 296 301 309 316 319 320 322 324 327 329
286 286 286 286 286 286 286 286 286 286 286 286 285 284 284 282 282 281 281 285 288 287 286 287 287 287 287 286 285 284 284 285 284 284 284 284 284 284 285 285 285 286 286 286 287 287 288 288 289 290 291 292 294 296 296 296 297 297 298 299 300 301 300 296 295 297 301 308 316 319 321 322 324 327
286 286 286 286 286 286 286 286 286 286 285 285 285 284 283 281 281 281 279 282 288 288 286 286 287 286 286 285 284 284 283 283 283 283 282 282 282 283 283 284 284 284 284 284 285 286 286 287 287 288 289 290 292 294 295 296 296 295 295 298 299 300 301 300 297 296 297 300 308 315 319 321 320 323
286 286 286 286 286 286 286 286 285 285 285 284 284 282 282 281 280 280 278 279 285 288 287 286 287 286 285 284 283 282 283 282 281 281 281 281 281 281 282 282 282 283 283 283 283 284 285 285 285 286 287 288 289 291 293 295 294 293 292 294 297 298 300 301 299 298 298 298 300 307 315 319 318 320
286 286 286 286 286 286 286 285 285 284 284 284 283 282 281 281 279 279 278 277 281 286 287 286 286 286 284 284 283 281 281 282 280 279 279 279 279 280 280 281 281 281 282 282 282 283 283 284 284 284 285 286 287 289 290 291 292 292 291 291 294 295 297 299 299 297 298 298 298 301 307 315 317 317
285 285 286 286 286 285 285 284 284 284 284 283 283 282 281 280 279 278 277 277 276 282 286 286 285 285 283 282 283 281 279 279 278 277 278 278 278 279 279 279 279 280 281 281 281 281 282 283 284 285 285 286 287 288 288 289 290 290 290 290 291 292 294 295 296 294 295 297 298 299 302 309 316 316
285 285 286 285 285 285 284 284 283 283 283 283 282 282 280 279 279 277 276 276 275 277 282 283 283 283 282 280 280 279 278 278 277 276 276 277 278 278 278 278 279 279 280 280 280 281 282 283 285 285 286 286 287 288 288 289 290 290 290 290 290 291 292 294 294 293 293 295 297 298 300 304 311 316
285 285 285 285 284 284 283 283 283 283 283 283 282 282 281 279 278 277 275 275 275 274 277 280 281 281 280 279 279 276 276 277 276 275 276 276 277 277 278 278 278 279 279 279 280 282 283 284 285 285 286 286 287 288 288 289 290 290 291 291 291 290 292 294 295 295 294 295 297 298 299 301 306 313
285 285 285 284 284 283 283 282 282 283 283 282 282 281 281 279 277 276 275 274 274 274 273 277 280 279 276 277 277 274 274 275 275 275 276 276 277 277 277 277 277 278 279 279 280 282 282 283 284 285 286 286 287 288 288 289 289 290 291 292 292 291 292 295 296 296 296 297 298 298 298 300 304 309
285 285 284 284 283 283 282 282 282 282 282 281 280 279 279 277 276 275 275 274 274 275 274 274 276 277 275 274 275 274 274 274 274 275 275 275 276 276 276 277 277 277 278 279 280 281 281 282 283 284 285 286 287 288 289 290 290 290 291 291 291 292 293 295 297 297 297 298 299 300 300 299 302 307
284 284 284 283 283 282 282 282 282 282 282 280 279 278 276 276 275 274 275 275 275 275 275 274 274 275 274 274 274 274 274 274 274 274 275 275 276 276 276 277 277 277 278 279 279 280 281 282 283 284 285 286 287 289 290 290 291 291 291 290 290 291 293 295 296 297 297 299 300 302 302 300 301 305
284 284 284 283 282 282 282 282 282 282 281 279 278 276 275 275 275 275 275 275 275 275 275 275 274 274 274 274 274 274 274 274 274 274 275 275 276 276 276 276 277 278 278 279 280 281 281 282 283 284 285 285 286 288 289 290 291 292 291 290 290 291 293 295 296 296 297 299 300 301 302 301 301 305
284 284 283 283 282 282 281 282 282 280 278 277 276 276 276 275 276 276 276 275 275 275 275 275 275 275 275 275 274 274 274 275 275 275 275 275 275 276 276 277 277 278 279 279 280 281 282 283 283 283 283 284 286 288 289 289 290 292 292 291 290 291 293 295 295 296 297 299 299 300 301 301 301 304
284 284 283 282 282 281 281 282 281 278 276 275 275 276 276 276 276 276 276 276 276 276 276 276 276 275 275 275 275 275 275 275 275 275 275 275 276 276 277 277 278 279 279 280 281 282 282 282 282 282 282 283 286 287 288 289 290 292 293 292 291 291 293 295 295 296 297 298 299 299 300 300 301 304
284 283 283 282 281 281 281 281 280 278 276 275 275 275 276 276 276 276 276 276 277 276 276 276 276 276 276 276 276 276 276 276 276 276 276 276 276 277 277 278 279 280 280 281 282 282 282 281 281 281 281 283 285 286 287 288 290 291 293 294 293 293 293 295 296 296 297 297 298 300 300 300 301 303
283 282 282 281 281 281 281 281 280 278 276 275 275 275 276 276 276 277 277 277 277 277 277 277 277 277 277 276 276 276 276 276 276 276 277 277 277 277 278 279 279 280 280 280 280 280 280 279 280 281 282 283 284 285 286 288 290 291 292 294 295 295 295 296 297 298 298 298 299 300 300 300 301 303
282 282 281 280 281 281 281 281 279 278 276 276 275 275 276 276 276 276 276 277 277 277 277 277 277 276 276 276 276 276 276 276 276 276 277 277 277 277 278 279 279 279 279 279 279 279 279 279 280 280 282 282 283 284 285 287 289 290 291 293 295 295 296 297 298 299 299 299 300 301 301 301 301 302
282 281 280 280 281 281 281 281 279 277 276 276 276 276 276 276 276 276 276 276 276 276 276 276 276 276 276 276 276 276 276 276 276 276 276 276 277 277 277 278 278 278 278 278 278 278 279 279 280 281 281 282 282 283 284 285 288 290 290 292 293 294 295 296 296 297 298 299 300 301 302 302 302 302
281 280 280 280 281 281 280 280 278 276 276 276 276 276 276 275 275 276 276 276 276 276 276 276 276 276 276 276 276 276 276 276 276 276 277 277 277 277 277 278 278 278 278 278 278 279 280 280 280 281 281 282 283 283 284 285 287 289 290 291 293 294 294 294 295 295 295 297 298 300 301 302 302 302
280 280 280 280 280 280 279 278 277 275 275 276 275 275 275 276 276 276 276 276 276 276 276 277 277 277 277 277 277 277 277 277 278 278 278 278 277 277 278 278 279 279 279 279 279 280 280 280 281 281 281 282 283 283 283 284 286 288 290 291 293 294 295 294 294 294 294 295 297 299 301 302 302 302
280 280 280 280 280 279 278 277 276 275 275 275 275 275 276 276 276 276 275 275 275 275 276 276 276 276 276 276 277 277 277 278 278 278 278 278 278 278 278 279 279 279 280 280 280 280 281 281 281 282 282 283 283 283 283 284 286 287 289 291 292 294 295 294 294 295 296 296 297 299 301 302 302 302
279 280 280 280 279 277 277 277 276 275 275 275 275 276 276 275 275 275 274 274 274 274 274 275 275 275 275 276 276 276 276 277 277 277 278 278 278 278 278 279 279 279 279 280 280 280 281 281 282 282 282 283 283 283 284 285 287 289 289 290 291 293 294 294 293 294 296 297 298 299 301 302 302 303
280 280 280 279 278 277 277 276 275 275 275 276 275 275 275 274 274 274 274 274 274 274 274 274 274 274 274 274 274 274 274 275 275 276 276 277 277 277 277 278 278 279 279 279 280 281 281 281 282 282 283 283 283 284 284 285 288 291 292 291 292 294 294 293 293 293 295 297 299 300 302 303 303 304
280 280 279 279 278 278 277 275 274 275 275 275 275 274 274 274 274 274 274 273 273 273 273 273 273 273 273 273 273 273 274 274 274 275 275 276 276 277 277 277 278 278 278 279 279 280 281 281 281 282 282 283 283 283 283 284 286 289 291 291 292 294 293 293 293 293 294 297 300 301 302 304 305 305
280 279 279 278 278 277 276 274 274 274 275 274 274 274 274 273 273 273 273 273 273 273 272 272 273 273 273 272 272 272 273 273 274 275 276 277 277 277 277 278 278 278 278 278 279 279 279 280 280 280 281 282 282 282 283 283 284 285 287 288 290 291 292 292 292 292 293 296 299 301 303 306 307 306
279 278 278 277 277 276 274 274 274 274 274 274 274 274 274 273 273 272 272 273 273 273 273 273 273 273 272 271 270 271 271 272 273 275 276 277 277 278 278 278 278 278 278 279 279 279 279 280 280 281 281 282 282 283 283 284 284 284 285 287 288 290 290 291 291 292 293 295 297 300 303 306 307 307
279 278 277 276 276 274 274 274 274 274 274 274 274 274 273 272 272 272 273 273 273 273 273 272 271 270 270 270 270 271 271 271 272 273 274 275 276 277 278 278 279 279 279 279 279 279 280 280 280 281 281 282 282 283 284 284 284 285 286 287 289 290 291 291 291 291 292 294 295 298 302 305 306 308
278 277 276 275 274 274 274 274 274 274 274 274 274 274 273 273 273 274 274 273 272 271 271 270 269 269 269 270 270 270 271 271 271 272 272 273 274 275 276 277 278 278 279 280 280 280 281 281 281 281 281 282 282 283 284 284 284 285 285 287 288 290 291 291 291 291 291 293 294 296 300 304 305 308
277 276 275 274 274 274 274 274 274 274 274 274 274 274 274 274 274 274 273 271 270 269 269 269 269 269 269 270 270 270 270 271 271 271 271 272 273 274 275 276 277 278 279 279 280 281 281 282 282 282 282 282 283 283 284 284 284 285 285 286 287 288 289 290 290 290 291 292 293 295 299 304 306 308
276 275 274 274 274 274 274 274 274 274 274 274 274 274 274 274 274 273 271 270 269 269 269 269 269 269 269 270 270 270 270 271 271 271 271 271 272 273 274 275 276 277 278 279 280 281 282 283 283 283 283 283 283 284 284 285 285 285 285 286 287 288 289 289 290 290 291 292 293 295 298 303 306 308
275 274 274 274 274 274 274 274 274 274 274 274 274 274 274 274 273 272 271 270 269 269 269 269 269 269 269 270 270 270 270 271 271 271 271 271 271 272 273 274 275 276 277 279 280 281 283 284 284 284 284 284 284 285 285 285 285 286 286 287 288 289 289 290 290 291 291 291 293 295 297 301 306 308
274 274 274 274 274 274 274 275 275 274 274 274 274 274 274 274 273 272 271 270 269 269 269 269 269 269 269 270 270 270 270 271 271 271 271 271 271 271 272 273 274 274 275 278 280 281 283 284 285 285 285 285 285 285 286 286 286 287 287 288 289 289 290 290 290 291 292 292 293 295 297 301 305 308
274 273 274 274 274 274 275 275 275 274 274 273 273 273 274 274 273 272 271 270 269 269 269 269 269 269 269 270 270 270 270 270 270 270 270 270 270 271 271 272 273 273 274 276 278 280 282 284 285 286 286 286 286 286 287 287 287 288 288 288 289 290 290 290 291 292 292 292 293 295 298 301 305 309
274 274 274 274 274 274 274 274 274 273 273 273 273 273 273 273 273 271 270 269 269 269 269 269 269 269 269 270 270 270 270 270 270 270 270 270 270 270 271 271 272 272 273 274 276 278 281 283 285 286 287 287 287 287 288 288 288 289 289 289 290 290 290 290 291 292 293 293 294 295 297 301 305 309
273 273 274 274 274 274 274 273 273 273 272 272 272 272 273 273 272 271 270 269 269 269 269 269 269 269 269 270 270 270 270 270 270 270 270 270 270 270 270 271 271 272 272 273 274 276 279 281 284 286 287 288 288 288 288 289 289 289 289 290 290 290 290 291 291 292 293 293 294 295 296 300 304 308
273 273 273 274 274 273 273 273 272 272 272 271 271 272 272 272 272 271 270 269 269 269 269 269 269 269 269 270 270 270 270 270 270 270 270 270 270 270 270 270 271 271 271 272 273 275 277 279 282 285 287 288 289 289 289 289 289 290 290 290 290 291 291 291 292 292 293 294 294 295 296 299 302 308
273 273 273 273 273 273 272 272 272 272 271 271 271 271 271 272 271 271 270 269 269 269 269 269 269 269 270 270 270 270 270 270 270 270 270 270 270 270 270 270 270 271 271 271 272 273 275 278 280 284 286 288 289 289 290 290 290 290 291 291 291 292 292 292 292 293 294 294 295 296 298 299 302 308
273 273 273 273 273 272 272 271 271 271 271 271 271 271 271 271 271 270 270 269 269 269 269 269 269 270 270 270 270 270 270 270 270 270 270 270 270 270 270 270 270 270 270 271 271 272 274 276 279 282 285 287 289 290 290 290 291 291 291 292 292 293 293 293 293 294 294 295 296 298 300 300 303 309
273 273 273 273 272 272 271 271 271 271 271 271 271 271 271 271 271 270 270 269 269 269 269 269 269 270 270 270 270 270 270 270 270 270 270 270 270 269 270 270 270 270 270 270 271 272 273 275 277 280 283 286 288 289 290 291 291 291 292 292 293 293 294 294 295 295 295 296 298 299 301 303 306 311
272 273 273 273 272 271 271 271 271 271 271 270 270 271 271 271 271 270 270 269 269 269 269 269 269 270 270 270 270 270 270 269 270 270 270 270 269 269 270 270 270 270 270 270 271 271 272 274 276 279 282 285 287 289 290 290 291 291 291 292 292 293 294 294 295 296 297 298 299 299 301 304 309 313
273 273 273 272 271 271 271 271 271 271 271 270 270 270 270 271 271 270 269 269 269 269 269 269 270 270 270 270 270 270 269 269 269 269 269 269 270 269 269 270 270 270 270 270 270 271 272 274 276 278 280 282 285 288 290 291 291 291 291 292 292 292 293 293 294 295 296 297 298 299 302 306 312 314
273 273 272 272 271 271 271 271 271 271 271 270 270 270 270 271 271 270 269 269 269 269 269 269 270 270 270 270 270 269 269 269 269 269 269 269 269 269 269 269 269 269 270 270 270 271 272 274 276 277 278 280 283 286 289 291 291 292 292 292 292 293 293 293 294 295 295 296 297 299 303 309 313 314
273 272 272 272 271 271 271 271 271 271 271 270 270 270 270 270 271 270 269 268 268 269 269 270 270 270 270 270 270 269 269 269 269 269 269 269 269 269 269 269 269 269 269 270 270 270 272 274 275 275 277 280 282 285 288 290 291 292 292 292 293 293 293 294 295 296 297 298 298 299 303 310 314 314
272 272 272 271 271 271 271 271 271 271 270 270 270 269 270 270 270 270 269 268 268 269 269 270 270 270 270 270 269 269 269 269 269 269 269 269 269 269 269 269 269 269 269 269 270 270 271 273 274 275 276 278 281 284 286 289 290 291 292 292 293 293 294 294 295 296 297 299 301 302 303 308 313 315
272 272 271 271 271 271 271 271 271 271 271 270 270 269 270 270 270 270 269 268 268 269 270 270 270 270 270 269 269 269 269 269 269 269 269 269 269 269 269 269 269 269 269 270 270 271 271 272 274 275 276 278 281 283 285 287 289 290 292 292 293 294 294 295 296 297 298 300 303 304 304 306 311 315
Wind_Speed
15 16 17 19 20 21 23 24 25 26 26 27 27 29 28 28 35 43 52 63 64 54 50 51 51 51 48 47 47 47 50 51 50 53 55 55 56 54 52 52 51 48 47 48 51 52 53 52 51 51 50 50 48 47 46 43 40 39 38 39 42 45 48 50 53 57 60 59 57 52 40 41 56 65
16 17 18 19 21 22 24 26 26 27 27 28 28 29 30 29 31 34 41 57 66 59 53 52 51 54 53 52 51 49 51 52 52 52 52 50 48 48 46 46 47 48 48 50 52 53 54 56 57 58 58 56 54 51 49 47 44 43 42 40 40 43 46 49 52 54 58 61 60 58 50 39 43 58
17 18 19 20 21 23 26 27 28 28 27 29 30 31 31 30 32 33 34 48 63 61 56 58 57 56 56 55 54 53 53 53 52 51 49 48 47 48 50 51 52 54 55 55 53 52 53 56 60 63 64 63 62 58 55 52 49 49 49 46 43 43 44 46 50 52 55 60 61 60 59 48 39 51
18 19 20 21 22 25 27 27 27 28 29 30 31 32 34 33 33 34 34 44 60 63 59 62 61 57 57 58 56 57 58 55 53 53 53 52 52 52 53 53 53 52 53 52 51 50 50 53 57 61 64 66 67 65 63 60 57 56 57 55 51 47 46 47 49 52 53 56 59 59 61 59 47 48
19 20 21 22 24 25 27 27 27 28 29 31 33 33 35 36 35 35 36 42 54 63 61 60 61 57 57 60 58 57 59 58 55 55 55 52 52 53 52 51 51 50 50 50 52 52 51 51 52 54 57 60 63 66 68 69 68 68 67 64 61 57 53 50 51 54 54 55 57 57 58 62 56 48
19 20 22 24 24 26 27 28 28 30 30 31 33 33 33 35 35 34 36 39 48 58 62 60 60 58 56 59 59 56 59 60 56 54 55 54 52 50 48 48 50 52 53 54 55 54 52 49 48 47 48 49 51 54 59 63 65 69 72 69 66 64 60 56 55 56 57 56 57 57 55 59 61 54
19 21 24 25 25 26 28 29 29 30 32 32 32 32 31 31 32 30 31 36 42 52 58 59 58 58 57 58 59 57 57 58 54 51 51 51 49 46 45 46 49 51 52 52 51 48 45 42 41 41 43 44 46 47 49 51 53 57 63 66 67 67 61 56 56 57 56 57 58 58 56 56 59 61
21 23 25 25 27 28 29 30 30 31 32 32 32 32 30 28 28 26 26 30 35 41 51 56 55 56 58 58 57 56 55 54 52 48 46 45 45 45 44 44 47 49 48 46 44 40 38 37 36 37 39 41 43 45 45 46 47 49 52 56 62 66 62 56 55 56 56 56 57 57 57 56 56 61
23 24 26 27 28 29 30 31 32 33 33 33 32 31 31 28 28 29 29 31 34 38 47 54 55 55 55 57 57 53 51 53 50 47 46 43 42 45 47 48 49 50 48 43 40 39 38 37 36 36 38 39 40 41 42 43 45 46 49 53 56 60 61 56 54 56 57 57 57 56 57 57 56 58
24 25 27 29 29 30 32 32 33 33 33 32 31 30 30 30 30 33 34 36 38 41 47 53 56 57 52 53 57 51 47 50 50 49 52 51 48 48 51 53 51 48 46 45 43 43 41 39 39 39 39 39 39 39 42 46 47 46 48 54 56 57 58 56 55 56 58 57 56 55 56 57 57 57
24 27 28 30 30 30 32 33 32 33 32 30 30 30 31 32 34 36 38 40 41 44 49 52 55 59 55 51 56 54 48 50 52 49 52 56 55 51 49 51 52 51 50 49 46 44 42 41 40 39 38 39 40 40 40 45 49 48 47 51 56 57 56 55 55 56 58 57 54 54 55 56 57 58
25 28 29 30 31 31 31 32 32 32 31 31 32 31 32 34 37 40 41 43 44 46 51 54 55 58 58 54 56 55 49 50 51 47 47 53 57 57 54 54 54 53 50 48 46 44 42 40 38 37 39 42 41 42 42 41 43 47 47 49 54 57 55 55 56 56 57 57 54 53 54 55 57 59
26 28 30 31 31 31 31 31 31 29 27 28 31 33 34 36 38 41 42 44 46 48 51 54 54 56 58 59 59 55 49 50 52 49 48 52 56 59 59 58 53 47 46 46 47 46 40 37 38 41 46 47 42 43 44 40 39 42 45 46 51 56 56 54 56 56 56 58 56 54 54 53 55 60
26 28 30 31 31 30 30 29 28 26 23 24 28 31 32 34 36 40 42 44 46 48 51 53 54 56 59 61 60 57 53 48 47 48 48 50 54 54 56 57 50 42 40 42 43 41 36 37 45 50 52 49 43 43 46 42 38 38 40 43 48 54 56 54 55 56 57 58 57 55 55 54 54 59
27 28 30 30 30 29 29 28 27 25 24 25 27 29 31 32 34 37 40 44 45 47 50 53 53 54 58 60 57 53 50 45 43 46 47 47 50 50 49 51 46 35 31 34 40 45 44 45 51 54 54 51 44 43 45 42 37 34 34 39 43 48 52 53 53 55 57 59 59 56 55 54 53 58
27 29 29 29 29 28 27 27 27 27 27 27 28 30 32 33 33 35 37 42 45 47 50 53 55 56 57 59 57 50 45 45 44 46 45 42 43 46 46 47 47 39 32 35 48 60 61 55 54 54 55 53 47 43 42 40 36 33 30 33 39 44 48 50 50 51 55 58 59 57 57 55 54 58
27 29 29 28 28 27 26 26 27 27 29 30 30 32 34 35 36 37 37 40 43 46 49 53 58 60 56 57 59 53 47 48 48 47 47 45 45 48 50 51 54 52 45 45 55 67 69 59 54 56 58 54 49 45 42 39 37 35 31 29 33 38 42 44 45 46 49 53 56 56 58 57 54 58
27 27 27 28 27 26 25 25 27 28 31 33 34 36 38 40 41 42 43 43 43 44 47 52 57 59 57 57 60 58 52 52 52 52 53 53 53 54 57 60 64 66 62 56 54 63 71 62 52 56 59 54 51 48 44 41 39 37 34 30 29 32 33 35 38 40 42 47 50 52 55 55 54 58
27 26 26 26 26 25 25 25 26 28 29 32 35 37 38 40 42 43 45 46 46 47 49 52 55 57 57 57 58 58 55 53 54 54 56 58 57 57 59 63 66 67 65 56 47 55 67 60 50 56 59 54 53 51 45 42 41 38 36 32 31 31 31 33 35 36 37 41 46 50 53 54 54 58
25 25 24 24 24 24 25 25 25 25 27 31 34 36 38 41 42 45 46 44 44 44 45 47 49 51 53 54 54 55 54 53 54 53 56 58 56 55 59 63 65 65 64 55 42 47 61 59 50 56 59 52 52 53 49 46 45 41 37 33 31 30 29 31 34 35 36 38 42 48 53 54 56 58
24 23 23 23 23 23 24 24 23 23 26 30 33 36 41 43 44 47 47 42 38 37 38 41 44 46 48 49 50 51 51 51 50 51 56 59 53 51 56 60 62 63 63 56 44 43 57 59 50 53 56 52 52 55 52 46 43 42 39 36 33 30 27 29 32 35 37 38 40 45 51 54 57 59
23 23 21 20 20 22 23 22 21 22 25 29 33 37 41 44 46 48 46 42 40 39 40 40 41 41 43 44 46 48 48 48 46 47 54 58 53 51 56 60 61 61 63 62 52 48 56 57 49 48 52 51 51 50 46 41 39 39 39 37 34 30 28 29 30 31 36 38 39 43 49 53 56 58
22 21 20 18 18 20 21 20 19 21 25 29 33 36 38 43 46 45 42 42 43 44 44 44 44 45 46 47 49 51 51 49 47 47 51 55 54 56 60 61 59 58 61 59 47 42 50 51 44 42 42 44 49 48 42 40 37 32 32 31 31 32 33 34 32 29 31 36 40 43 48 52 55 56
21 20 19 18 18 18 18 19 20 23 26 28 31 33 36 40 41 39 39 41 42 44 47 49 49 49 48 48 49 49 48 46 45 44 46 49 51 54 58 60 58 59 62 58 42 38 46 49 45 43 41 44 54 56 52 50 44 36 32 31 32 35 38 39 38 33 30 33 38 44 49 52 53 55
19 19 19 19 18 17 18 19 22 24 25 26 29 31 33 34 34 35 38 42 44 44 46 46 46 45 45 45 44 43 41 41 41 40 41 43 45 48 53 56 58 61 65 61 50 47 53 56 54 53 52 51 57 60 59 58 55 49 44 40 38 40 41 43 45 40 33 30 34 41 49 50 49 52
17 17 18 18 17 17 19 21 22 24 24 25 28 29 28 28 30 32 36 40 41 41 42 42 43 43 44 44 42 41 40 39 38 38 39 40 42 45 48 51 55 60 62 58 51 49 54 57 55 53 52 52 54 55 55 57 58 53 47 42 40 41 41 42 45 43 37 32 31 35 45 48 46 49
16 16 16 17 17 18 20 22 22 23 24 25 26 26 26 27 28 31 34 35 36 38 40 41 43 43 43 43 42 41 41 40 39 39 40 41 41 43 46 48 52 57 58 56 53 52 54 58 57 55 54 54 55 54 52 55 57 53 47 42 39 39 40 41 43 44 41 37 34 31 37 45 46 48
14 15 14 15 16 18 20 21 22 22 22 23 24 24 25 27 28 30 32 33 35 37 39 41 43 43 41 40 39 39 40 40 41 43 44 45 44 44 46 48 50 53 55 55 54 54 56 59 59 57 55 56 57 57 54 54 56 53 49 45 42 41 42 42 43 45 44 42 39 33 32 40 46 47
12 12 12 13 15 18 19 20 20 20 20 21 22 24 25 27 28 29 30 32 34 37 39 40 42 42 39 37 36 38 40 41 43 45 46 47 46 45 45 47 48 49 50 51 52 53 55 58 58 56 55 55 57 58 57 56 57 57 54 51 49 49 48 45 45 48 47 44 41 36 30 34 43 48
10 10 12 14 16 18 18 19 19 20 20 21 22 24 25 27 27 28 29 31 33 36 38 40 41 41 39 38 39 40 42 43 44 45 47 48 47 45 43 44 45 45 44 45 46 47 51 55 55 54 55 56 57 58 57 56 57 58 56 52 50 51 50 47 45 46 45 43 41 37 30 29 39 48
9 11 12 14 16 17 17 17 18 19 21 22 23 24 26 27 27 27 28 29 31 34 37 40 41 41 40 39 41 43 45 46 45 44 45 47 47 44 42 42 43 44 44 44 42 41 45 50 51 52 53 54 55 56 55 54 56 57 56 52 48 48 50 49 45 44 43 43 42 39 33 28 34 45
9 11 13 14 16 17 17 17 18 19 21 22 24 26 27 27 28 28 28 29 31 33 36 39 42 42 41 40 42 44 47 47 46 45 45 46 46 44 42 42 42 41 43 46 44 40 41 44 47 49 50 51 53 53 52 53 54 55 56 53 49 49 52 51 48 45 43 41 41 40 35 29 31 43
10 11 13 14 16 17 18 19 20 21 22 24 25 27 27 28 29 30 31 32 34 35 37 40 42 43 42 41 43 46 49 48 47 46 45 45 45 44 42 41 41 39 39 43 45 42 40 40 43 47 48 48 50 51 50 52 53 52 52 51 49 48 50 51 48 44 40 40 41 41 37 30 30 41
10 11 13 14 15 16 18 19 20 22 24 26 28 29 29 30 30 31 32 34 35 37 39 40 42 44 43 43 45 49 51 50 48 47 46 45 45 43 41 41 41 38 35 37 40 41 40 39 39 43 45 46 48 49 49 51 52 50 50 49 47 48 51 51 48 43 40 40 40 41 39 32 30 40
10 11 12 13 14 16 17 19 20 22 24 27 29 31 31 31 31 32 34 35 37 39 40 41 43 44 43 44 47 50 51 51 50 49 48 47 44 42 40 40 40 39 37 38 40 42 42 39 38 40 41 42 44 46 48 49 50 49 49 49 47 48 51 50 47 44 42 41 40 41 41 35 31 40
9 10 11 12 14 16 17 19 20 22 24 27 29 31 32 33 32 33 35 36 38 40 41 43 45 46 45 46 49 52 52 51 51 51 49 48 45 42 40 39 39 39 39 39 40 42 41 39 38 40 40 40 40 41 43 44 44 45 48 49 48 49 49 48 46 44 44 43 42 42 41 37 33 41
8 9 10 12 14 15 17 19 20 22 24 26 28 30 32 33 34 34 35 37 39 40 42 43 45 46 46 47 51 53 53 51 51 51 49 47 45 42 41 40 39 39 41 41 41 41 40 38 38 40 41 39 38 38 38 38 38 39 42 45 47 48 47 46 45 45 45 45 44 43 41 39 37 43
7 8 10 12 14 15 17 18 21 23 24 26 28 30 32 33 34 34 36 38 40 42 43 44 46 46 47 49 52 54 54 53 51 51 49 47 45 43 42 43 43 42 41 42 43 42 39 37 39 41 41 40 39 36 33 32 34 35 35 37 39 42 43 44 45 46 46 45 43 41 40 38 37 45
6 8 10 12 14 16 17 18 21 23 25 26 28 30 32 34 34 35 37 39 41 43 44 46 47 47 48 51 53 53 53 53 52 51 50 48 45 44 44 45 45 44 42 43 45 42 37 35 36 37 39 40 41 39 36 34 36 36 34 33 35 37 38 39 42 44 44 42 41 39 36 34 36 47
6 8 11 12 14 15 17 19 21 23 24 26 28 30 32 33 34 36 38 40 42 44 46 47 48 48 50 53 55 55 54 54 52 51 50 49 46 45 45 44 44 43 43 44 44 41 39 39 38 37 37 38 39 40 41 41 42 43 41 40 40 40 40 40 41 42 42 41 39 38 36 36 39 50
5 8 10 12 14 16 18 19 21 23 24 26 28 30 31 32 33 35 38 40 42 45 47 48 48 48 51 55 57 56 56 55 53 52 51 49 48 46 45 44 44 44 44 44 44 44 44 44 42 39 39 38 37 38 40 43 45 46 45 44 44 44 44 46 46 46 46 45 41 38 37 39 45 52
5 8 10 12 14 16 18 20 22 23 25 26 28 31 32 33 33 35 38 41 43 46 48 49 48 49 53 57 59 58 56 54 54 53 51 50 49 47 46 46 46 46 45 46 47 47 46 44 40 39 39 38 36 37 40 42 43 42 43 45 45 44 44 46 47 48 49 49 47 43 39 40 47 50
6 8 10 12 14 17 19 21 22 23 25 26 28 30 32 33 34 36 39 42 45 47 49 50 50 51 55 59 60 58 56 54 54 53 52 51 49 48 48 49 48 48 48 49 49 48 44 41 39 37 36 35 35 37 40 41 41 40 42 45 46 45 44 45 45 45 45 45 46 45 42 42 49 52
7 9 11 13 15 17 19 21 23 24 25 26 27 29 32 33 34 36 39 41 44 48 50 51 51 53 58 61 60 59 57 54 53 52 52 51 49 48 49 49 49 50 49 47 46 46 43 41 38 34 33 35 36 37 39 40 41 42 43 44 45 45 45 45 43 42 42 41 40 42 41 42 50 58
7 9 11 14 16 18 20 22 23 25 26 27 27 29 31 33 34 36 39 41 45 48 51 51 51 54 59 61 60 58 57 56 54 52 51 51 49 48 48 49 50 52 50 45 43 43 42 39 37 34 34 37 38 38 39 41 43 43 44 45 45 45 46 44 41 40 40 39 37 40 40 40 49 60
Wind_Direction
300 303 306 309 312 314 314 313 312 310 307 303 300 297 294 290 292 298 303 303 302 303 304 305 307 309 308 305 302 300 299 299 299 299 298 297 296 296 296 295 294 292 288 283 278 273 269 266 265 263 262 262 260 259 259 258 258 262 265 265 263 257 252 251 248 244 243 242 242 242 245 248 242 235
296 300 303 306 310 311 310 309 307 306 304 301 297 293 290 284 280 283 290 296 299 300 301 302 303 305 304 301 298 297 297 299 299 299 299 298 297 296 293 291 291 290 288 285 283 279 273 267 264 262 261 260 258 254 253 254 255 258 261 261 263 262 257 255 253 248 245 243 241 240 242 245 245 237
292 296 300 304 307 307 306 305 305 304 302 299 295 291 287 282 279 279 278 285 294 299 299 299 299 300 301 299 296 296 296 297 298 297 295 293 290 287 286 286 286 286 285 283 283 282 277 270 265 263 260 259 258 255 252 251 252 255 258 259 260 264 262 257 255 253 249 245 242 240 239 240 250 244
290 294 300 303 304 303 302 303 302 301 298 294 291 286 284 280 277 277 272 274 287 296 297 296 298 300 300 298 295 295 297 296 295 294 293 291 289 287 287 287 286 284 284 282 281 279 279 277 273 268 264 261 259 257 254 252 252 253 256 257 258 260 262 259 256 255 253 249 244 242 240 238 247 250
290 295 299 300 301 301 300 300 299 297 294 291 288 284 282 280 276 273 270 269 280 292 297 295 298 300 299 298 297 296 296 296 295 295 294 292 291 290 290 287 284 283 282 282 281 281 282 285 283 277 272 268 263 260 257 256 256 256 256 257 255 254 258 259 258 256 255 253 249 245 241 237 241 248
289 293 296 298 299 299 298 298 297 295 293 290 288 285 282 280 277 271 269 267 272 285 295 298 299 301 299 298 298 297 295 295 297 297 294 292 292 291 290 287 283 282 282 282 283 285 286 286 285 282 278 275 271 267 263 260 258 258 257 256 252 250 253 256 256 257 256 255 253 249 244 238 236 242
289 292 294 296 298 297 296 297 296 295 293 291 288 287 285 282 281 275 269 269 270 278 290 297 299 302 301 298 297 297 297 297 298 299 297 295 294 292 290 289 286 285 285 285 285 285 286 285 283 282 280 278 276 274 270 267 264 260 258 256 252 248 250 254 254 255 255 255 254 252 248 240 235 237
290 291 294 296 296 296 296 297 297 295 293 293 290 289 291 289 289 288 281 278 278 280 289 296 299 302 301 300 301 302 302 302 302 302 300 298 298 296 294 292 292 292 292 290 287 285 286 286 285 284 282 281 279 277 274 271 268 264 259 256 253 248 248 252 253 251 253 253 252 252 250 243 237 235
290 292 294 296 296 296 297 298 298 297 295 294 294 294 298 301 303 304 300 296 293 290 292 297 302 303 301 302 304 304 304 305 304 303 301 297 295 295 295 294 294 296 297 294 291 289 290 290 289 288 288 287 285 284 282 278 274 268 259 254 252 248 247 250 251 249 250 252 251 251 251 244 238 235
291 294 296 296 297 297 298 299 298 298 296 296 298 301 306 309 309 307 304 302 299 295 294 296 299 301 300 299 302 302 300 301 301 298 298 297 293 293 295 296 296 296 296 293 290 289 290 290 289 290 291 290 289 288 288 284 279 272 263 254 248 246 245 247 248 248 249 251 251 250 251 246 238 234
294 296 296 296 297 297 298 300 300 299 298 299 303 307 311 311 308 304 302 300 298 294 294 293 293 296 296 294 297 300 298 298 297 294 296 298 297 296 295 294 296 296 293 292 290 289 288 288 289 291 290 289 286 283 285 284 277 270 265 258 248 243 244 246 247 247 247 249 250 249 250 248 240 234
295 296 296 296 298 299 299 301 301 301 303 307 309 309 309 306 302 299 297 296 294 292 291 291 289 291 293 290 292 296 296 296 296 293 292 295 296 296 295 293 295 296 294 292 292 292 292 292 292 289 288 288 282 277 281 287 281 269 263 258 249 243 244 247 247 246 246 248 249 248 248 247 242 235
296 296 296 296 298 300 302 304 304 306 306 303 301 300 300 299 296 295 293 291 291 290 287 287 287 287 288 288 289 291 289 290 294 293 290 291 293 294 295 293 292 291 290 289 291 294 295 293 291 289 291 290 282 277 282 290 289 275 264 257 248 242 243 247 247 246 246 247 248 248 247 246 243 237
297 297 297 297 300 304 306 307 306 306 302 289 284 285 288 289 288 289 290 288 287 287 285 286 287 286 286 287 287 289 288 288 291 292 288 287 291 293 292 291 290 288 289 290 291 290 288 288 291 293 295 292 284 280 284 290 292 282 267 257 249 243 245 248 249 248 246 246 247 246 245 247 244 238
299 298 298 300 304 305 305 305 305 307 306 297 286 281 280 282 281 282 284 284 284 284 284 285 285 284 285 287 287 287 290 287 286 289 288 285 288 289 287 287 288 287 288 291 290 286 284 288 293 294 294 293 289 286 286 288 293 289 271 257 250 247 248 250 252 250 247 246 246 244 243 246 246 239
300 299 300 302 304 303 303 306 310 311 310 307 298 288 282 280 279 278 279 280 282 282 282 283 283 282 283 286 285 284 287 287 285 287 286 281 282 284 281 281 282 281 281 285 288 288 287 290 292 290 291 293 294 292 291 289 292 293 281 262 252 250 252 252 251 249 247 245 245 243 242 244 245 240
298 298 301 302 301 302 304 308 313 315 313 313 310 303 296 291 288 286 283 280 279 279 280 280 281 282 282 283 283 282 283 284 283 282 281 277 277 278 277 276 277 278 278 282 287 288 288 288 288 287 290 293 294 295 295 292 289 291 290 275 259 254 254 253 249 245 244 245 244 243 242 241 243 241
297 297 299 299 299 302 305 311 318 319 317 314 310 306 302 297 295 294 292 288 284 281 279 278 279 282 283 282 283 284 284 282 279 278 277 277 276 277 278 278 278 279 279 280 282 283 284 286 286 286 289 291 293 294 295 292 287 287 289 282 270 263 260 257 253 247 246 247 245 245 241 238 240 240
293 294 295 297 300 306 311 319 321 315 309 305 300 296 294 294 295 296 294 293 292 289 286 284 284 286 286 286 286 287 286 283 281 279 279 279 278 278 280 280 281 282 281 280 276 276 280 284 284 285 288 290 291 293 293 289 284 282 284 282 277 271 265 262 259 255 253 250 248 248 243 238 237 237
289 292 295 299 305 312 317 321 317 306 299 296 294 294 296 299 299 298 297 295 292 290 287 285 285 285 287 288 286 285 285 284 283 282 281 278 276 275 275 277 279 281 282 281 274 271 279 283 283 284 287 288 288 290 291 288 283 280 279 278 277 274 267 265 264 261 259 253 247 247 243 239 237 236
288 291 296 303 311 315 316 316 312 303 297 296 299 302 303 303 300 297 297 296 292 289 286 285 285 284 285 285 284 283 282 280 281 281 279 276 275 273 272 273 274 277 279 279 275 274 279 281 280 281 284 285 284 288 291 288 282 278 277 274 274 272 266 268 269 268 265 255 245 243 242 239 238 236
287 292 299 310 315 312 310 311 310 305 301 302 304 304 302 299 297 297 300 302 302 303 300 295 292 288 286 286 284 283 283 281 279 277 275 276 277 276 274 274 275 276 275 275 275 275 275 277 278 280 283 284 284 286 291 292 288 285 281 276 273 268 263 265 269 273 271 259 245 241 240 238 237 235
288 296 304 312 313 308 307 312 313 307 304 303 302 301 298 296 297 301 307 310 310 309 304 298 294 291 290 289 287 286 286 283 280 275 272 273 274 274 273 273 274 275 274 274 274 272 272 274 276 277 280 285 285 284 287 289 290 289 283 273 264 257 256 262 268 276 277 262 247 239 237 238 236 233
291 299 306 311 310 308 313 321 317 308 304 304 300 298 296 296 300 309 312 309 305 302 298 296 297 296 297 298 297 296 294 291 288 282 276 273 272 271 272 272 271 270 270 270 269 269 272 273 273 273 275 280 283 284 285 284 281 276 273 270 264 257 257 264 271 277 278 265 250 240 236 237 236 231
294 303 308 310 312 318 325 325 316 308 306 304 299 297 299 301 306 310 306 302 302 301 301 302 303 303 306 308 306 303 299 297 296 292 286 281 276 272 270 270 269 269 270 271 268 268 271 272 271 272 273 273 275 278 282 284 281 275 272 274 275 271 268 271 275 278 277 268 255 242 235 235 234 228
298 304 306 310 322 331 327 319 315 312 310 306 302 304 307 307 306 304 302 303 307 309 310 311 312 312 313 313 308 304 301 299 298 294 290 288 284 278 274 271 269 269 272 276 274 268 267 269 269 269 269 269 270 273 276 279 280 278 275 274 275 276 275 276 278 279 277 272 266 250 237 235 235 229
298 301 307 320 331 329 319 317 318 316 312 310 310 313 313 309 307 307 308 313 317 318 319 320 319 318 316 312 308 304 303 302 300 297 292 288 285 282 280 277 274 272 275 278 276 270 267 268 268 267 266 267 269 270 271 273 275 277 276 274 273 274 274 274 276 279 278 276 274 263 244 238 237 231
299 306 317 324 323 319 318 320 319 315 315 317 319 320 318 315 314 316 318 323 326 326 326 324 322 319 314 309 306 305 304 303 302 301 298 294 290 286 281 278 276 274 275 276 275 272 269 268 267 266 266 266 266 266 267 269 271 272 273 273 273 271 269 271 274 278 280 279 277 272 255 241 237 232
301 310 317 317 317 320 321 319 317 319 325 327 326 325 322 320 322 326 330 333 332 329 327 325 322 319 313 307 305 306 306 306 306 306 305 303 300 297 291 286 280 276 274 274 274 273 269 267 266 266 265 264 264 264 264 266 268 270 270 271 272 271 269 270 273 277 280 280 277 274 263 244 235 231
305 316 320 321 323 324 320 318 322 328 332 333 332 330 327 327 331 337 340 338 334 329 328 326 323 320 315 312 312 313 313 312 312 311 308 306 304 302 299 295 290 285 281 278 277 276 272 267 265 264 263 262 262 262 262 263 266 268 269 269 271 273 272 271 272 275 279 280 278 273 265 248 234 230
318 323 324 323 321 317 315 318 327 332 335 337 337 335 333 334 338 343 344 340 335 331 330 328 325 323 320 318 318 319 318 316 314 313 310 307 304 302 299 295 292 290 286 281 279 280 277 271 266 262 260 260 259 259 260 260 261 264 267 266 266 269 271 271 273 275 276 279 279 273 265 254 239 230
324 321 319 318 314 311 315 323 329 334 338 339 339 338 338 338 340 344 345 342 338 335 331 329 328 327 324 321 321 321 320 318 316 314 311 308 305 302 299 294 291 292 291 286 281 281 280 276 268 262 260 259 258 258 258 257 257 259 262 264 263 264 266 270 273 274 274 277 278 273 263 254 243 233
315 315 315 314 312 315 323 330 334 338 340 341 341 340 340 341 342 345 346 344 341 337 333 330 330 329 326 323 323 323 321 319 318 316 313 310 307 304 298 293 290 291 293 291 286 283 281 279 273 264 261 260 259 258 256 254 255 256 258 260 261 262 264 268 270 271 272 273 275 274 265 252 242 235
309 313 314 314 318 326 333 336 339 342 341 341 341 342 342 344 344 346 347 345 341 337 333 331 330 330 328 325 324 325 323 320 319 317 315 312 310 304 298 292 290 291 292 290 288 284 280 280 278 270 262 260 260 259 256 254 254 256 257 258 258 259 263 266 266 267 269 269 270 273 268 255 244 236
308 313 314 319 328 334 338 341 344 344 343 342 342 341 342 345 347 348 348 347 342 338 335 332 331 331 330 327 326 325 324 321 319 318 316 315 312 306 299 293 290 291 292 290 288 286 280 278 279 274 264 259 258 258 258 256 254 255 256 256 257 257 261 264 263 263 266 266 266 269 267 259 249 236
304 310 317 328 335 339 342 346 347 347 345 344 344 343 343 345 348 350 349 347 344 340 337 333 333 332 331 328 327 326 325 322 320 319 318 316 313 307 301 295 291 291 292 290 288 287 283 278 277 274 267 259 255 256 258 258 257 256 254 254 256 257 259 262 262 261 263 263 263 264 261 258 252 234
298 311 324 333 338 342 347 349 349 350 349 347 344 344 344 344 347 350 351 349 346 343 338 334 333 333 331 329 328 327 326 324 321 319 318 316 314 310 304 299 296 294 293 292 290 289 284 278 273 272 269 262 255 254 258 260 261 260 256 253 254 256 258 260 259 259 261 261 262 262 258 257 253 232
296 319 332 336 339 344 348 349 350 352 352 348 346 344 343 344 347 349 351 351 348 343 339 335 334 334 332 330 329 328 327 325 322 320 318 317 314 310 306 303 301 298 295 293 292 290 284 277 271 269 269 265 258 255 258 260 259 259 258 256 255 257 259 257 255 258 260 260 262 262 257 253 248 229
309 331 337 338 341 344 346 349 350 351 351 349 348 345 342 342 345 349 352 352 348 342 338 336 335 335 333 331 331 330 328 326 323 321 319 317 313 310 308 306 303 301 297 293 291 288 281 275 270 267 267 268 265 262 261 261 261 261 260 258 257 258 258 255 254 257 260 260 263 263 256 247 239 223
330 338 338 341 344 344 345 347 348 349 350 349 348 346 343 341 345 350 353 351 346 341 339 338 337 336 334 333 332 331 329 327 325 322 320 318 314 311 309 306 302 299 297 292 288 284 279 274 269 264 263 266 269 270 268 265 265 265 262 259 258 257 256 257 257 258 260 261 260 259 253 240 224 211
332 336 340 345 346 345 346 347 346 346 347 347 346 345 342 342 345 351 353 351 345 341 339 338 338 336 334 333 333 332 330 328 326 324 322 320 316 312 310 307 303 299 297 291 286 283 282 280 275 269 266 266 270 274 269 261 259 262 262 262 263 261 259 259 258 257 259 259 255 254 250 233 213 201
330 339 344 346 347 347 347 348 346 345 345 346 345 343 342 342 345 351 354 352 347 343 340 339 339 337 335 334 334 333 331 329 327 325 324 321 318 314 311 309 306 302 297 292 289 288 287 285 280 275 272 269 267 268 265 258 256 259 263 265 267 267 264 262 259 256 256 255 251 250 243 220 201 193
337 344 345 345 347 349 349 348 347 346 345 344 343 342 341 342 345 351 355 352 347 344 342 341 340 338 336 335 335 334 333 331 329 327 325 322 319 316 313 311 309 305 300 295 294 295 293 290 284 279 275 270 263 260 260 260 258 260 262 263 266 267 265 264 262 259 257 254 249 246 237 213 197 192
341 343 345 346 347 349 349 349 348 347 345 344 341 340 340 342 345 351 355 351 346 344 343 342 341 338 337 336 336 335 334 333 330 327 325 323 321 318 315 313 312 310 306 301 297 297 296 293 289 282 273 266 261 257 257 258 258 258 259 260 262 263 262 262 263 261 260 258 250 241 233 219 206 201
341 343 345 346 346 347 348 348 347 347 346 345 341 338 339 341 345 351 355 352 347 345 344 343 341 338 337 337 337 336 335 334 332 329 327 325 323 320 319 317 316 314 313 309 302 299 298 294 290 283 274 269 267 263 258 256 255 256 257 257 258 259 260 262 263 260 261 260 247 230 224 218 210 206